Le nostre stazioni meteo in Italia

Pubblicità
Il mio iltempo24.it
Pian Rosa, Italia (16052): Temperatura & dewpoint: 15.01.2020 03:00:00 - 21.01.2020 03:00:00 (CET)Pian Rosa, Italia (16052): velocità del vento & gusts: 15.01.2020 03:00:00 - 21.01.2020 03:00:00 (CET)Pian Rosa, Italia (16052): direzione del vento: 15.01.2020 03:00:00 - 21.01.2020 03:00:00 (CET)Pian Rosa, Italia (16052): visibility: 15.01.2020 03:00:00 - 21.01.2020 03:00:00 (CET)Pian Rosa, Italia (16052): ore di luce: 15.01.2020 03:00:00 - 21.01.2020 03:00:00 (CET)
Data & Tempo tt [°C] td [°C] ff [km/h] ff [kn] fx [km/h] fx [kn] dd vv [km] sd [min]
21.01.2020 03:00:00 -11,4 -12,2 28 15 - - SE 10 -
21.01.2020 02:00:00 -10,6 -11,4 22 12 - - S 10 -
21.01.2020 01:00:00 -11,6 -12,4 41 22 - - SE 10 -
21.01.2020 00:00:00 -11,8 -12,6 39 21 - - ESE 10 -
20.01.2020 23:00:00 -12,4 -13,2 41 22 - - ESE 10 -
20.01.2020 22:00:00 -12,8 -13,6 41 22 - - SE 10 -
20.01.2020 21:00:00 -14,0 -14,8 39 21 - - SE 10 -
20.01.2020 20:00:00 -13,6 -14,9 28 15 - - SE 10 -
20.01.2020 19:00:00 -15,8 -16,5 39 21 - - SSE 10 -
20.01.2020 18:00:00 -14,0 -16,0 11 6 - - SO 15 -
20.01.2020 17:00:00 -13,0 -15,0 11 6 - - SSO 50 36
20.01.2020 16:00:00 -12,2 -14,9 15 8 - - SSO 50 60
20.01.2020 15:00:00 -13,0 -16,5 9 5 - - SSE 50 60
20.01.2020 14:00:00 -15,8 -17,2 11 6 - - E 60 60
20.01.2020 13:00:00 -16,6 -18,0 13 7 - - S 35 60
20.01.2020 12:00:00 -18,4 -20,4 8 4 - - SO 35 48
20.01.2020 11:00:00 -15,2 -16,1 8 4 - - O 50 48
20.01.2020 10:00:00 -18,8 -21,2 13 7 - - OSO 50 12
20.01.2020 09:00:00 -18,8 -23,9 9 5 - - E 50 -
20.01.2020 08:00:00 -20,0 -20,7 13 7 - - OSO 0,1 -
20.01.2020 07:00:00 -20,0 -20,7 13 7 - - OSO 0,1 -
20.01.2020 06:00:00 -20,2 -20,9 15 8 - - OSO 0,8 -
20.01.2020 05:00:00 -20,4 -21,1 11 6 - - O 0,8 -
20.01.2020 04:00:00 -20,4 -21,1 11 6 - - OSO 8 -
20.01.2020 03:00:00 -20,8 -21,5 11 6 - - O 8 -
20.01.2020 02:00:00 -20,0 -20,7 15 8 - - SSO 10 -
20.01.2020 01:00:00 -20,0 -22,3 11 6 - - SSO 10 -
20.01.2020 00:00:00 -19,8 -21,3 9 5 - - O 10 -
19.01.2020 23:00:00 -19,0 -24,8 8 4 - - SSE 10 -
19.01.2020 22:00:00 -20,2 -21,5 5 3 - - OSO 10 -
19.01.2020 21:00:00 -21,4 -23,8 8 4 - - ENE 10 -
19.01.2020 20:00:00 -21,2 -21,9 21 11 - - ENE 10 -
19.01.2020 19:00:00 -21,2 -23,7 22 12 - - ENE 10 -
19.01.2020 18:00:00 -21,0 -25,8 15 8 - - ENE 25 24
19.01.2020 17:00:00 -20,6 -29,7 13 7 - - NE 45 60
19.01.2020 16:00:00 -20,6 -30,0 21 11 - - NE 35 36
19.01.2020 15:00:00 -20,2 -30,0 21 11 - - NE 50 6
19.01.2020 14:00:00 -19,8 -30,0 18 10 - - NE 50 6
19.01.2020 13:00:00 -19,8 -30,0 21 11 - - NE 50 60
19.01.2020 12:00:00 -20,0 -30,0 18 10 - - NE 50 60
19.01.2020 11:00:00 -18,4 -30,0 21 11 - - NE 50 60
19.01.2020 10:00:00 -18,4 -30,0 31 17 - - NE 50 12
19.01.2020 09:00:00 -17,8 -30,0 29 16 - - ENE 50 0
19.01.2020 08:00:00 -17,0 -30,0 28 15 - - ENE 20 -
19.01.2020 07:00:00 -18,2 -30,0 34 18 - - NE 10 -
19.01.2020 06:00:00 -17,0 -30,0 37 20 - - NE 10 -
19.01.2020 05:00:00 -16,0 -30,0 35 19 - - NE 10 -
19.01.2020 04:00:00 -15,2 -30,0 31 17 - - NE 10 -
19.01.2020 03:00:00 -13,4 -30,0 39 21 - - NNE 10 -
19.01.2020 02:00:00 -13,6 -30,0 34 18 - - NNE 10 -
19.01.2020 01:00:00 -13,8 -30,0 42 23 - - NNE 10 -
19.01.2020 00:00:00 -14,0 -30,0 35 19 - - NE 10 -
18.01.2020 23:00:00 -14,0 -30,0 39 21 - - NNE 10 -
18.01.2020 22:00:00 -13,8 -30,0 42 23 - - NNE 10 -
18.01.2020 21:00:00 -13,2 -30,0 46 25 - - NNE 10 -
18.01.2020 20:00:00 -13,2 -30,0 48 26 - - NNE 10 -
18.01.2020 19:00:00 -13,8 -30,0 50 27 - - NNE 10 -
18.01.2020 18:00:00 -14,8 -30,0 48 26 - - NNE 15 -
18.01.2020 17:00:00 -16,0 -30,0 48 26 - - NE 50 60
18.01.2020 16:00:00 -16,0 -27,3 50 27 - - NE 50 60
18.01.2020 15:00:00 -17,4 -21,2 55 30 - - NE 50 60
18.01.2020 14:00:00 -18,0 -19,0 50 27 72 39 NE 80 60
18.01.2020 13:00:00 -18,0 -19,0 57 31 - - NNE 80 60
18.01.2020 12:00:00 -18,4 -19,4 50 27 - - NE 80 -
18.01.2020 11:00:00 -18,0 -19,0 46 25 - - NE 70 24
18.01.2020 10:00:00 -17,6 -18,6 37 20 - - NE 50 -
18.01.2020 09:00:00 -16,8 -17,8 42 23 - - NE 50 -
18.01.2020 08:00:00 -16,4 -17,4 41 22 - - NE 0,1 -
18.01.2020 07:00:00 -16,4 -17,4 42 23 - - NE 0,5 -
18.01.2020 06:00:00 -15,6 -16,6 44 24 - - NE 0,1 -
18.01.2020 05:00:00 -15,4 -16,3 50 27 - - NE 0,1 -
18.01.2020 04:00:00 -15,0 -16,0 50 27 - - NE 0,1 -
18.01.2020 03:00:00 -14,0 -15,1 39 21 - - NE 0,1 -
18.01.2020 02:00:00 -13,8 -14,7 42 23 - - NE 0,1 -
18.01.2020 01:00:00 -13,2 -14,2 46 25 - - NE 0,1 -
18.01.2020 00:00:00 -12,4 -13,4 41 22 - - NE 0,1 -
17.01.2020 23:00:00 -11,8 -12,7 35 19 - - NE 0,1 -
17.01.2020 22:00:00 -12,0 -12,8 26 14 - - NE 0,1 -
17.01.2020 21:00:00 -10,6 -11,4 16 9 - - NE 0,3 -
17.01.2020 20:00:00 -9,8 -10,4 8 4 - - NE 0,5 -
17.01.2020 19:00:00 -10,0 -10,6 4 2 - - N 0,5 -
17.01.2020 18:00:00 -9,4 -10,0 13 7 - - SSO 0,5 -
17.01.2020 17:00:00 -9,2 -9,8 11 6 - - S 10 12
17.01.2020 16:00:00 -8,8 -9,5 16 9 - - SO 0,5 48
17.01.2020 15:00:00 -8,4 -9,7 16 9 - - SO 60 12
17.01.2020 14:00:00 -7,2 -15,1 21 11 - - SO 60 12
17.01.2020 13:00:00 -6,8 -17,0 18 10 - - SO 60 12
17.01.2020 12:00:00 -6,8 -20,4 22 12 - - SSO 60 42
17.01.2020 11:00:00 -6,8 -21,5 18 10 - - SO 60 60
17.01.2020 10:00:00 -7,2 -24,8 18 10 - - SSO 70 6
17.01.2020 09:00:00 -7,0 -25,7 22 12 - - SSO 70 -
17.01.2020 08:00:00 -6,4 -24,6 16 9 - - SSO 12 -
17.01.2020 07:00:00 -6,8 -20,7 16 9 - - SO 12 -
17.01.2020 06:00:00 -6,0 -16,8 16 9 - - SO 10 -
17.01.2020 05:00:00 -6,4 -15,1 13 7 - - SSO 10 -
17.01.2020 04:00:00 -7,2 -12,6 28 15 - - SSO 10 -
17.01.2020 03:00:00 -7,0 -14,5 18 10 - - SSO 10 -
17.01.2020 02:00:00 -6,4 -15,6 18 10 - - SO 10 -
17.01.2020 01:00:00 -5,2 -15,5 15 8 - - S 10 -
17.01.2020 00:00:00 -5,2 -15,3 15 8 - - SSE 10 -
16.01.2020 23:00:00 -4,8 -14,6 13 7 - - SSE 10 -
16.01.2020 22:00:00 -4,8 -14,4 11 6 - - SE 12 -
16.01.2020 21:00:00 -4,6 -14,5 4 2 - - SSO 12 -
16.01.2020 20:00:00 -5,0 -14,6 11 6 - - E 12 -
16.01.2020 19:00:00 -5,2 -13,5 13 7 - - ENE 12 -
16.01.2020 18:00:00 -4,8 -14,1 15 8 - - ENE 12 24
16.01.2020 17:00:00 -4,0 -14,7 15 8 - - ENE 70 60
16.01.2020 16:00:00 -3,6 -17,6 13 7 - - ENE 70 60
16.01.2020 15:00:00 -2,2 -4,7 5 3 - - E 70 60
16.01.2020 14:00:00 -2,2 -21,1 8 4 - - SO 70 60
16.01.2020 13:00:00 -3,4 -21,1 11 6 - - SSO 70 60
16.01.2020 12:00:00 -4,0 -22,6 16 9 - - SSO 70 60
16.01.2020 11:00:00 -4,2 -25,0 15 8 - - SSO 70 60
16.01.2020 10:00:00 -5,0 -25,7 11 6 - - SO 70 12
16.01.2020 09:00:00 -5,4 -28,7 9 5 - - SSO 70 -
16.01.2020 08:00:00 -6,2 -30,0 13 7 - - SO 30 -
16.01.2020 07:00:00 -5,2 -30,0 15 8 - - SSO 10 -
16.01.2020 06:00:00 -5,0 -30,0 16 9 - - S 12 -
16.01.2020 05:00:00 -4,8 -30,0 13 7 - - SSO 12 -
16.01.2020 04:00:00 -4,4 -30,0 13 7 - - SSO 12 -
16.01.2020 03:00:00 -4,4 -30,0 15 8 - - SSO 12 -
16.01.2020 02:00:00 -4,4 -30,0 15 8 - - SSO 12 -
16.01.2020 01:00:00 -4,4 -30,0 18 10 - - SSO 12 -
16.01.2020 00:00:00 -4,6 -30,0 21 11 - - SSO 12 -
15.01.2020 23:00:00 -4,8 -30,0 22 12 - - SO 12 -
15.01.2020 22:00:00 -4,8 -30,0 28 15 - - SSO 10 -
15.01.2020 21:00:00 -5,0 -30,0 24 13 - - SO 10 -
15.01.2020 20:00:00 -5,0 -28,4 26 14 - - SSO 10 -
15.01.2020 19:00:00 -5,2 -26,5 21 11 - - SO 10 -
15.01.2020 18:00:00 -4,0 -24,8 22 12 - - SO 20 18
15.01.2020 17:00:00 -3,6 -20,8 22 12 - - SO 40 42
15.01.2020 16:00:00 -2,6 -17,0 22 12 - - SO 60 42
15.01.2020 15:00:00 -0,8 -14,0 22 12 - - SO 70 60
15.01.2020 14:00:00 -0,8 -15,4 31 17 - - SSO 70 48
15.01.2020 13:00:00 -1,8 -11,6 37 20 - - SSO 70 60
15.01.2020 12:00:00 -1,0 -6,3 35 19 - - SSO 70 60
15.01.2020 11:00:00 -1,6 -4,8 35 19 - - SSO 70 60
15.01.2020 10:00:00 -2,4 -4,3 28 15 - - SSO 70 6
15.01.2020 09:00:00 -3,0 -4,5 24 13 - - SSO 70 -
15.01.2020 08:00:00 -3,2 -4,0 26 14 - - SO 50 -
15.01.2020 07:00:00 -3,2 -4,0 24 13 - - SSO 12 -
15.01.2020 06:00:00 -3,2 -4,0 15 8 - - SSO 10 -
15.01.2020 05:00:00 -3,2 -4,0 15 8 - - SSO 10 -
15.01.2020 04:00:00 -3,4 -4,2 18 10 - - SO 10 -
15.01.2020 03:00:00 -3,4 -4,2 22 12 - - SSO 10 -

tt = Temperatura
td = dewpoint
ff = velocità del vento
fx = gusts
dd = direzione del vento
vv = visibility
sd = ore di luce

Stazioni seguenti

WeatherPro
AMSI
MeteoEarth